1499983200.83,26469,18.69,73922.5,-2.41,-37.51,-38.11,0,*53
1499983202.1,26470,18.69,73924.3,-2.41,-37.21,-37.75,0,*51
1499983203.38,26471,18.69,73926.8,-2.41,-37.21,-37.69,0,*5D
1499983204.67,26472,18.69,73928.3,-2.41,-37.21,-37.81,0,*58
1499983205.97,26473,18.69,73928.0,-2.41,-37.81,-38.49,0,*58
1499983207.22,26474,18.69,73924.8,-2.41,-37.57,-38.11,0,*59
1499983208.48,26475,18.69,73930.3,-2.41,-37.75,-38.29,0,*53
1499983209.72,26476,18.69,73928.0,-2.43,-37.63,-38.35,0,*58
1499983210.98,26477,18.69,73930.0,-2.43,-37.39,-37.81,0,*56
1499983212.19,26478,18.69,73936.8,-2.43,-37.03,-37.57,0,*5B
1499983213.43,26479,18.69,73932.5,-2.43,-37.39,-37.87,0,*5E
1499983214.64,26480,18.69,73930.0,-2.43,-37.45,-38.17,0,*55
1499983215.85,26481,18.69,73930.3,-2.43,-37.57,-38.35,0,*57
1499983217.09,26482,18.69,73932.3,-2.43,-37.99,-38.61,0,*57
1499983218.33,26483,18.69,73938.3,-2.43,-37.99,-38.61,0,*56
1499983219.57,26484,18.69,73934.3,-2.43,-37.81,-38.55,0,*5F
1499983220.78,26485,18.69,73934.8,-2.43,-37.87,-38.73,0,*5C
1499983222.0,26486,18.69,73932.3,-2.43,-37.87,-38.55,0,*5B
1499983223.23,26487,18.69,73934.3,-2.45,-38.05,-38.79,0,*57
1499983224.44,26488,18.69,73930.5,-2.45,-37.87,-38.55,0,*53
1499983225.67,26489,18.69,73932.0,-2.45,-37.99,-38.73,0,*59
1499983226.87,26490,18.69,73932.8,-2.45,-37.75,-38.43,0,*50
1499983228.11,26491,18.69,73930.8,-2.43,-37.57,-38.23,0,*51
1499983229.32,26492,18.69,73928.5,-2.43,-37.27,-38.05,0,*51
1499983230.58,26493,18.69,73930.3,-2.43,-37.63,-38.23,0,*54
1499983231.8,26494,18.69,73932.3,-2.43,-37.87,-38.55,0,*58
1499983233.02,26495,18.69,73932.5,-2.43,-37.87,-38.55,0,*59
1499983234.25,26496,18.69,73932.5,-2.43,-37.63,-38.17,0,*56
1499983235.5,26497,18.69,73930.3,-2.43,-37.81,-38.43,0,*5A
1499983236.73,26498,18.69,73934.5,-2.45,-37.99,-38.61,0,*5A
1499983237.97,26499,18.69,73932.5,-2.45,-37.99,-38.55,0,*5C
1499983239.17,26500,18.69,73936.3,-2.45,-37.45,-38.05,0,*59
1499983240.4,26501,18.69,73940.0,-2.45,-37.39,-37.87,0,*56
1499983241.64,26502,18.69,73938.5,-2.43,-37.03,-37.63,0,*50
1499983242.85,26503,18.69,73936.3,-2.45,-37.27,-37.87,0,*5B
1499983244.06,26504,18.69,73934.3,-2.45,-37.45,-38.17,0,*5E
1499983245.26,26505,18.69,73936.0,-2.45,-37.57,-38.17,0,*5C
1499983246.49,26506,18.69,73934.8,-2.43,-37.99,-38.73,0,*59
1499983247.72,26507,18.69,73936.0,-2.45,-38.05,-38.79,0,*5E
1499983248.93,26508,18.69,73932.5,-2.45,-37.87,-38.61,0,*5D
1499983250.19,26509,18.69,73934.8,-2.45,-37.63,-38.23,0,*50
1499983251.42,26510,18.69,73932.8,-2.45,-37.63,-38.17,0,*5F
1499983252.63,26511,18.69,73932.5,-2.45,-37.45,-38.17,0,*5A
1499983253.87,26512,18.69,73934.5,-2.45,-37.81,-38.43,0,*50
1499983255.11,26513,18.69,73934.3,-2.45,-37.81,-38.55,0,*56
1499983256.35,26514,18.69,73934.8,-2.45,-37.81,-38.43,0,*56
1499983257.55,26515,18.69,73932.5,-2.45,-38.05,-38.73,0,*57
1499983258.75,26516,18.69,73932.3,-2.45,-38.05,-38.73,0,*54
1499983259.98,26517,18.69,73934.8,-2.45,-37.75,-38.23,0,*58
1499983261.21,26518,18.69,73932.8,-2.45,-37.09,-37.57,0,*50
1499983262.42,26519,18.69,73930.5,-2.45,-37.27,-37.75,0,*5D
1499983263.65,26520,18.69,73934.0,-2.45,-37.63,-38.35,0,*5C
1499983264.89,26521,18.69,73934.0,-2.45,-37.99,-38.55,0,*5E
1499983266.13,26522,18.69,73928.3,-2.43,-37.99,-38.61,0,*5C
1499983267.33,26523,18.69,73930.5,-2.45,-37.75,-38.55,0,*5E
1499983268.55,26524,18.69,73934.0,-2.45,-37.87,-38.55,0,*54
1499983269.76,26525,18.69,73936.3,-2.45,-37.75,-38.35,0,*5E
1499983271.01,26526,18.69,73932.0,-2.45,-37.63,-38.23,0,*5D
1499983272.22,26527,18.69,73934.0,-2.45,-37.45,-38.17,0,*5F
1499983273.47,26528,18.69,73938.3,-2.49,-37.51,-37.93,0,*5A
1499983274.67,26529,18.69,73936.8,-2.45,-37.57,-38.05,0,*51
1499983275.88,26530,18.69,73932.8,-2.45,-37.27,-37.87,0,*5B
1499983277.14,26531,18.69,73934.3,-2.43,-37.39,-37.81,0,*55
1499983278.38,26532,18.69,73934.3,-2.45,-37.81,-38.43,0,*52
1499983279.58,26533,18.69,73932.5,-2.45,-38.05,-38.73,0,*53
1499983280.83,26534,18.69,73934.3,-2.43,-37.81,-38.43,0,*52
1499983282.06,26535,18.69,73934.8,-2.49,-37.81,-38.61,0,*59
1499983283.29,26536,18.69,73934.3,-2.49,-38.05,-38.67,0,*5F
1499983284.52,26537,18.69,73936.8,-2.49,-37.87,-38.67,0,*5B
1499983285.76,26538,18.69,73938.5,-2.51,-37.87,-38.61,0,*5B
1499983287.01,26539,18.69,73934.8,-2.49,-37.93,-38.67,0,*50
1499983288.26,26540,18.69,73932.5,-2.49,-37.93,-38.67,0,*5E
1499983289.52,26541,18.69,73932.3,-2.49,-37.69,-38.29,0,*50
1499983290.77,26542,18.69,73934.8,-2.49,-37.51,-38.11,0,*53
1499983291.97,26543,18.69,73934.8,-2.49,-37.33,-37.87,0,*56
1499983293.18,26544,18.69,73934.0,-2.45,-37.27,-37.87,0,*58
1499983294.42,26545,18.69,73934.8,-2.45,-37.39,-37.87,0,*56
1499983295.65,26546,18.69,73932.8,-2.45,-37.39,-38.17,0,*53
1499983296.89,26547,18.69,73932.3,-2.45,-37.81,-38.43,0,*50
1499983298.15,26548,18.69,73934.0,-2.45,-37.63,-38.23,0,*55
1499983299.36,26549,18.69,73934.8,-2.45,-37.75,-38.43,0,*55
1499983300.6,26550,18.69,73932.0,-2.45,-37.81,-38.43,0,*56
1499983301.84,26551,18.69,73932.5,-2.45,-37.81,-38.43,0,*57
1499983303.05,26552,18.69,73934.5,-2.45,-37.87,-38.55,0,*55
1499983304.26,26553,18.69,73934.3,-2.43,-37.75,-38.43,0,*58
1499983305.52,26554,18.69,73932.8,-2.45,-37.63,-38.23,0,*58
1499983306.75,26555,18.69,73934.3,-2.45,-37.39,-38.05,0,*52
1499983307.98,26556,18.69,73932.5,-2.45,-37.39,-38.17,0,*52
1499983309.23,26557,18.69,73934.0,-2.49,-37.93,-38.67,0,*58
1499983310.47,26558,18.69,73936.0,-2.45,-37.81,-38.35,0,*5F
1499983311.71,26559,18.69,73934.3,-2.45,-37.63,-38.35,0,*52
1499983312.91,26560,18.69,73934.3,-2.45,-37.75,-38.43,0,*5E
1499983314.12,26561,18.69,73932.3,-2.43,-37.45,-38.17,0,*5B
1499983315.32,26562,18.69,73936.8,-2.45,-37.45,-38.05,0,*5D
1499983316.52,26563,18.69,73934.8,-2.45,-37.45,-38.17,0,*5F
1499983317.76,26564,18.69,73938.5,-2.45,-37.21,-37.75,0,*51
1499983319.0,26565,18.69,73938.3,-2.43,-37.39,-37.87,0,*52
1499983320.21,26566,18.69,73938.5,-2.43,-37.75,-38.35,0,*5F
1499983321.44,26567,18.69,73938.0,-2.43,-37.99,-38.73,0,*5E
1499983322.68,26568,18.69,73938.3,-2.45,-37.75,-38.23,0,*50
1499983323.92,26569,18.69,73938.3,-2.45,-37.81,-38.43,0,*5C
1499983325.15,26570,18.69,73932.8,-2.45,-37.99,-38.61,0,*5D
1499983326.36,26571,18.69,73936.0,-2.45,-37.87,-38.55,0,*54
1499983327.59,26572,18.69,73936.3,-2.45,-38.17,-38.79,0,*5F
1499983328.85,26573,18.69,73934.8,-2.45,-37.63,-38.23,0,*5D
1499983330.06,26574,18.69,73936.3,-2.45,-37.75,-38.35,0,*5A
1499983331.29,26575,18.69,73932.0,-2.45,-37.99,-38.73,0,*5B
1499983332.52,26576,18.69,73930.8,-2.45,-37.99,-38.55,0,*5C
1499983333.76,26577,18.69,73930.8,-2.45,-37.81,-38.43,0,*53
1499983334.99,26578,18.69,73934.5,-2.45,-37.63,-38.17,0,*51
1499983336.19,26579,18.69,73930.0,-2.45,-37.45,-38.05,0,*57
1499983337.43,26580,18.69,73932.3,-2.43,-37.75,-38.23,0,*50
1499983338.67,26581,18.69,73934.8,-2.45,-37.81,-38.43,0,*5A
1499983339.9,26582,18.69,73928.3,-2.45,-37.75,-38.23,0,*54
1499983341.1,26583,18.69,73928.5,-2.45,-37.45,-38.05,0,*52
1499983342.31,26584,18.69,73932.5,-2.45,-37.75,-38.43,0,*54
1499983343.55,26585,18.69,73932.3,-2.45,-37.99,-38.43,0,*57
1499983344.78,26586,18.69,73930.0,-2.45,-37.27,-37.81,0,*50
1499983346.01,26587,18.69,73930.0,-2.45,-37.09,-37.75,0,*56
1499983347.25,26588,18.69,73930.3,-2.45,-36.73,-37.09,0,*5E
1499983348.48,26589,18.69,73928.0,-2.45,-37.27,-37.63,0,*53
1499983349.68,26590,18.69,73934.0,-2.45,-37.45,-38.05,0,*50
1499983350.89,26591,18.69,73934.5,-2.45,-37.75,-38.43,0,*50
1499983352.09,26592,18.69,73932.3,-2.45,-38.05,-38.73,0,*58
1499983353.3,26593,18.69,73932.0,-2.43,-38.05,-38.61,0,*5C
1499983354.52,26594,18.69,73932.3,-2.43,-37.87,-38.43,0,*5E
1499983355.75,26595,18.69,73928.8,-2.45,-37.63,-38.05,0,*51
1499983356.97,26596,18.69,73928.8,-2.43,-37.99,-38.73,0,*50
1499983358.2,26597,18.69,73928.3,-2.45,-37.99,-38.73,0,*57
1499983359.41,26598,18.69,73928.0,-2.43,-37.75,-38.43,0,*5F
1499983360.67,26599,18.69,73930.8,-2.45,-37.63,-38.23,0,*59
1499983361.88,26600,18.69,73930.5,-2.45,-37.75,-38.43,0,*5B
1499983363.11,26601,18.69,73928.3,-2.49,-37.63,-38.43,0,*51
1499983364.34,26602,18.69,73930.5,-2.49,-37.87,-38.49,0,*52
1499983365.57,26603,18.69,73928.5,-2.49,-37.33,-37.93,0,*54
1499983366.77,26604,18.69,73930.8,-2.43,-37.57,-38.05,0,*5B
1499983368.04,26605,18.69,73930.3,-2.43,-37.21,-37.81,0,*58
1499983369.28,26606,18.69,73932.0,-2.45,-37.03,-37.63,0,*51
1499983370.55,26607,18.69,73932.3,-2.43,-37.21,-37.81,0,*5A
1499983371.76,26608,18.69,73928.0,-2.43,-37.57,-38.17,0,*54
1499983372.96,26609,18.69,73930.5,-2.45,-37.45,-38.05,0,*53
1499983374.16,26610,18.69,73936.3,-2.45,-37.75,-38.35,0,*5B
1499983375.36,26611,18.69,73934.0,-2.45,-38.05,-38.73,0,*50
1499983376.58,26612,18.69,73932.3,-2.43,-37.87,-38.55,0,*54
1499983377.79,26613,18.69,73934.3,-2.43,-37.45,-38.05,0,*5E
1499983379.05,26614,18.69,73934.3,-2.43,-37.21,-37.81,0,*58
1499983380.29,26615,18.69,73932.0,-2.45,-37.57,-38.23,0,*59
1499983381.49,26616,18.69,73932.5,-2.43,-37.45,-38.17,0,*58
1499983382.73,26617,18.69,73932.3,-2.43,-37.63,-38.17,0,*5D
1499983383.97,26618,18.69,73932.8,-2.43,-37.81,-38.61,0,*5F
1499983385.21,26619,18.69,73934.5,-2.43,-37.99,-38.61,0,*57
1499983386.45,26620,18.69,73934.0,-2.43,-37.81,-38.43,0,*54
1499983387.69,26621,18.69,73930.5,-2.45,-37.75,-38.23,0,*5E
1499983388.92,26622,18.69,73934.8,-2.43,-37.57,-38.23,0,*5B
1499983390.16,26623,18.69,73932.3,-2.43,-37.75,-38.23,0,*5A
1499983391.37,26624,18.69,73930.3,-2.45,-37.87,-38.61,0,*50
1499983392.57,26625,18.69,73934.3,-2.45,-38.05,-38.73,0,*57
1499983393.81,26626,18.69,73938.3,-2.45,-37.81,-38.35,0,*55
1499983395.01,26627,18.69,73936.3,-2.45,-38.05,-38.73,0,*55
1499983396.24,26628,18.69,73940.3,-2.45,-37.99,-38.61,0,*53
1499983397.48,26629,18.69,73936.0,-2.45,-37.75,-38.23,0,*56
1499983398.72,26630,18.69,73938.3,-2.45,-37.81,-38.55,0,*54
1499983399.92,26631,18.69,73934.3,-2.45,-38.05,-38.73,0,*52
1499983401.12,26632,18.69,73936.3,-2.45,-38.05,-38.73,0,*51
1499983402.32,26633,18.69,73936.5,-2.45,-38.05,-38.73,0,*50
1499983403.53,26634,18.69,73934.3,-2.45,-37.87,-38.43,0,*51
1499983404.74,26635,18.69,73932.0,-2.49,-37.87,-38.43,0,*5C
1499983405.98,26636,18.69,73934.8,-2.49,-37.81,-38.43,0,*59
1499983407.25,26637,18.69,73932.0,-2.51,-38.11,-38.79,0,*5E
1499983408.48,26638,18.69,73932.0,-2.49,-38.05,-38.67,0,*52
1499983409.74,26639,18.69,73934.5,-2.49,-37.69,-38.23,0,*56
1499983410.99,26640,18.69,73932.8,-2.49,-37.51,-38.11,0,*52
1499983412.24,26641,18.69,73934.0,-2.49,-37.63,-38.23,0,*53
1499983413.46,26642,18.69,73932.0,-2.49,-38.11,-38.97,0,*55
1499983414.72,26643,18.69,73936.0,-2.51,-38.23,-38.85,0,*5F
1499983415.97,26644,18.69,73930.8,-2.51,-37.93,-38.43,0,*56
1499983417.18,26645,18.69,73934.3,-2.49,-37.87,-38.61,0,*5B
1499983418.44,26646,18.69,73934.3,-2.49,-37.69,-38.29,0,*54
1499983419.7,26647,18.69,73934.0,-2.49,-37.93,-38.49,0,*56
1499983420.97,26648,18.69,73938.3,-2.51,-38.11,-38.79,0,*56
1499983422.18,26649,18.69,73934.5,-2.49,-38.05,-38.43,0,*52
1499983423.41,26650,18.69,73934.8,-2.51,-37.87,-38.43,0,*56
1499983424.64,26651,18.69,73934.0,-2.51,-38.05,-38.85,0,*58
1499983425.9,26652,18.69,73940.8,-2.51,-38.05,-38.79,0,*58
1499983427.19,26653,18.69,73934.0,-2.51,-37.81,-38.29,0,*5F
1499983428.45,26654,18.69,73930.0,-2.49,-37.81,-38.49,0,*57
1499983429.71,26655,18.69,73932.0,-2.51,-37.81,-38.43,0,*55
1499983430.97,26656,18.69,73932.3,-2.51,-38.05,-38.79,0,*5C
1499983432.22,26657,18.69,73926.3,-2.51,-38.11,-38.61,0,*51
1499983433.5,26658,18.69,73930.5,-2.51,-37.63,-38.23,0,*52
1499983434.73,26659,18.69,73928.5,-2.49,-37.93,-38.61,0,*53
1499983436.01,26660,18.69,73930.0,-2.51,-38.11,-38.79,0,*5C
1499983437.29,26661,18.69,73930.8,-2.51,-37.63,-38.11,0,*59
1499983438.55,26662,18.69,73928.8,-2.51,-37.87,-38.49,0,*5D
1499983439.83,26663,18.69,73932.5,-2.51,-37.93,-38.49,0,*59
1499983441.08,26664,18.69,73932.0,-2.51,-37.93,-38.61,0,*54
1499983442.35,26665,18.69,73934.5,-2.51,-37.81,-38.43,0,*56
1499983443.62,26666,18.69,73930.5,-2.51,-38.11,-38.67,0,*55
1499983444.83,26667,18.69,73932.0,-2.53,-37.75,-38.35,0,*5C
1499983446.07,26668,18.69,73930.5,-2.53,-37.93,-38.55,0,*5D
1499983447.3,26669,18.69,73930.8,-2.53,-37.75,-38.29,0,*5F
1499983448.53,26670,18.69,73928.5,-2.53,-38.17,-38.67,0,*56
1499983449.79,26671,18.69,73932.3,-2.53,-37.93,-38.49,0,*58
1499983451.04,26672,18.69,73934.8,-2.53,-37.39,-37.93,0,*53
1499983452.25,26673,18.69,73930.0,-2.53,-37.57,-38.17,0,*59
1499983453.48,26674,18.69,73932.3,-2.51,-37.75,-38.35,0,*5C
1499983454.71,26675,18.69,73930.3,-2.51,-38.05,-38.61,0,*54
1499983455.98,26676,18.69,73928.0,-2.51,-38.11,-38.79,0,*5B
1499983457.24,26677,18.69,73930.5,-2.53,-38.29,-39.03,0,*5F
1499983458.47,26678,18.69,73930.3,-2.53,-37.99,-38.55,0,*56
1499983459.68,26679,18.69,73930.8,-2.53,-38.17,-38.85,0,*53
1499983460.92,26680,18.69,73932.8,-2.53,-37.99,-38.55,0,*51
1499983462.2,26681,18.69,73932.5,-2.55,-37.69,-38.29,0,*52
1499983463.43,26682,18.69,73932.3,-2.53,-37.99,-38.73,0,*57
1499983464.65,26683,18.69,73932.0,-2.55,-38.17,-38.73,0,*59
1499983465.88,26684,18.69,73932.5,-2.55,-37.57,-38.17,0,*57
1499983467.09,26685,18.69,73934.0,-2.53,-37.33,-37.87,0,*54
1499983468.29,26686,18.69,73928.8,-2.53,-37.57,-38.17,0,*53
1499983469.55,26687,18.69,73930.0,-2.53,-37.93,-38.49,0,*51
1499983470.79,26688,18.69,73930.8,-2.53,-37.93,-38.55,0,*53
1499983472.0,26689,18.69,73928.3,-2.53,-37.87,-38.35,0,*51
1499983473.24,26690,18.69,73930.8,-2.53,-37.93,-38.55,0,*5A
1499983474.47,26691,18.69,73934.5,-2.53,-37.93,-38.55,0,*5B
1499983475.71,26692,18.69,73928.5,-2.53,-37.75,-38.29,0,*5B
1499983476.92,26693,18.69,73932.5,-2.53,-37.87,-38.35,0,*5A
1499983478.12,26694,18.69,73928.0,-2.53,-37.57,-38.17,0,*50
1499983479.38,26695,18.69,73928.8,-2.55,-37.75,-38.29,0,*5A
1499983480.67,26696,18.69,73928.8,-2.55,-37.93,-38.49,0,*57
1499983481.95,26697,18.69,73928.8,-2.55,-37.99,-38.49,0,*5C
1499983483.21,26698,18.69,73928.3,-2.55,-37.99,-38.55,0,*5E
1499983484.42,26699,18.69,73928.5,-2.53,-38.17,-38.85,0,*5D
1499983485.65,26700,18.69,73930.8,-2.55,-38.17,-38.85,0,*5A
1499983486.88,26701,18.69,73932.5,-2.55,-38.17,-38.85,0,*5B
1499983488.13,26702,18.69,73930.8,-2.55,-38.17,-38.91,0,*5D
1499983489.36,26703,18.69,73930.0,-2.55,-38.17,-38.85,0,*59
1499983490.62,26704,18.69,73930.5,-2.55,-37.99,-38.73,0,*5E
1499983491.87,26705,18.69,73924.3,-2.55,-37.75,-38.29,0,*52
1499983493.14,26706,18.69,73922.8,-2.55,-37.87,-38.29,0,*5C
1499983494.4,26707,18.69,73924.3,-2.55,-37.99,-38.55,0,*59
1499983495.66,26708,18.69,73926.8,-2.55,-37.93,-38.55,0,*5C
1499983496.9,26709,18.69,73928.3,-2.55,-38.11,-38.73,0,*5C
1499983498.15,26710,18.69,73928.0,-2.57,-38.23,-38.79,0,*5D
1499983499.42,26711,18.69,73932.5,-2.59,-37.99,-38.43,0,*55
1499983500.66,26712,18.69,73932.8,-2.57,-37.81,-38.55,0,*56
1499983501.88,26713,18.69,73932.0,-2.57,-37.45,-37.99,0,*50
1499983503.11,26714,18.69,73932.5,-2.57,-37.45,-37.99,0,*57
1499983504.4,26715,18.69,73930.8,-2.55,-37.51,-37.99,0,*51
1499983505.66,26716,18.69,73928.0,-2.55,-37.21,-37.75,0,*57
1499983506.9,26717,18.69,73930.8,-2.53,-37.21,-37.87,0,*5D
1499983508.17,26718,18.69,73938.0,-2.55,-37.21,-37.87,0,*54
1499983509.4,26719,18.69,73932.5,-2.53,-37.75,-38.49,0,*5F
1499983510.63,26720,18.69,73928.8,-2.55,-37.57,-38.17,0,*58
1499983511.91,26721,18.69,73930.0,-2.55,-37.93,-38.49,0,*5A
1499983513.17,26722,18.69,73932.3,-2.55,-37.99,-38.85,0,*53
1499983514.43,26723,18.69,73928.0,-2.55,-37.93,-38.55,0,*55
1499983515.71,26724,18.69,73930.3,-2.55,-37.93,-38.67,0,*53
1499983516.99,26725,18.69,73932.5,-2.55,-37.99,-38.67,0,*58
1499983518.22,26726,18.69,73928.0,-2.57,-38.23,-39.09,0,*5E
1499983519.41,26727,18.69,73930.8,-2.57,-38.05,-38.73,0,*57
1499983520.61,26728,18.69,73932.3,-2.57,-38.05,-38.73,0,*58
1499983521.81,26729,18.69,73932.5,-2.57,-38.05,-38.73,0,*59
1499983523.06,26730,18.69,73928.5,-2.57,-37.63,-38.23,0,*5B
1499983524.29,26731,18.69,73932.8,-2.57,-37.57,-38.23,0,*5D
1499983525.52,26732,18.69,73932.0,-2.57,-37.93,-38.55,0,*57
1499983526.73,26733,18.69,73934.0,-2.57,-37.75,-38.35,0,*58
1499983527.96,26734,18.69,73928.0,-2.57,-37.63,-38.35,0,*58
1499983529.18,26735,18.69,73928.8,-2.57,-37.99,-38.73,0,*5E
1499983530.41,26736,18.69,73932.3,-2.57,-37.99,-38.43,0,*5E
1499983531.65,26737,18.69,73930.3,-2.57,-37.57,-37.99,0,*55
1499983532.87,26738,18.69,73932.3,-2.57,-37.27,-37.93,0,*57
1499983534.1,26739,18.69,73932.3,-2.57,-37.45,-38.23,0,*56
1499983535.36,26740,18.69,73934.5,-2.57,-37.63,-38.23,0,*5C
1499983536.62,26741,18.69,73932.5,-2.57,-37.63,-38.23,0,*5D
1499983537.87,26742,18.69,73934.8,-2.57,-37.63,-38.23,0,*5E
1499983539.11,26743,18.69,73930.5,-2.55,-37.57,-38.35,0,*5D
1499983540.39,26744,18.69,73932.0,-2.55,-37.69,-38.29,0,*5A
1499983541.61,26745,18.69,73928.8,-2.57,-37.99,-38.73,0,*59
1499983542.87,26746,18.69,73934.8,-2.57,-37.99,-38.79,0,*50
1499983544.12,26747,18.69,73932.3,-2.57,-37.99,-38.79,0,*51
1499983545.41,26748,18.69,73932.8,-2.59,-37.99,-38.67,0,*5F
1499983546.64,26749,18.69,73934.3,-2.57,-37.93,-38.61,0,*5C
1499983547.92,26750,18.69,73934.8,-2.59,-37.69,-38.29,0,*53
1499983549.2,26751,18.69,73932.8,-2.55,-37.39,-37.93,0,*55
1499983550.43,26752,18.69,73932.3,-2.57,-37.57,-38.23,0,*58
1499983551.69,26753,18.69,73934.3,-2.57,-37.63,-38.23,0,*5E
1499983552.95,26754,18.69,73932.5,-2.59,-37.51,-38.43,0,*50
1499983554.21,26755,18.69,73932.8,-2.57,-37.39,-37.99,0,*59
1499983555.46,26756,18.69,73932.0,-2.55,-37.69,-38.17,0,*54
1499983556.72,26757,18.69,73932.0,-2.59,-38.11,-38.85,0,*52
1499983557.95,26758,18.69,73932.5,-2.57,-37.81,-38.43,0,*5F
1499983559.15,26759,18.69,73934.8,-2.57,-37.45,-38.05,0,*54
1499983560.38,26760,18.69,73930.8,-2.57,-37.27,-37.93,0,*5A
1499983561.64,26761,18.69,73930.8,-2.59,-37.45,-37.99,0,*5B
1499983562.88,26762,18.69,73928.0,-2.57,-37.81,-38.43,0,*56
1499983564.07,26763,18.69,73934.0,-2.57,-37.57,-38.05,0,*5E
1499983565.31,26764,18.69,73928.5,-2.57,-37.63,-38.35,0,*5D
1499983566.5,26765,18.69,73928.8,-2.57,-37.57,-38.05,0,*58
1499983567.74,26766,18.69,73928.0,-2.57,-37.81,-38.55,0,*55
1499983568.97,26767,18.69,73928.8,-2.57,-38.05,-38.79,0,*59
1499983570.22,26768,18.69,73928.3,-2.57,-38.23,-38.91,0,*54
1499983571.45,26769,18.69,73928.5,-2.57,-37.99,-38.61,0,*54
1499983572.71,26770,18.69,73928.8,-2.59,-37.69,-38.43,0,*5D
1499983573.92,26771,18.69,73930.5,-2.57,-37.75,-38.43,0,*5F
1499983575.12,26772,18.69,73928.8,-2.57,-37.75,-38.55,0,*5B
1499983576.38,26773,18.69,73930.8,-2.59,-37.69,-38.43,0,*5E
1499983577.63,26774,18.69,73926.8,-2.55,-37.33,-37.93,0,*58
1499983578.9,26775,18.69,73930.8,-2.59,-37.87,-38.49,0,*52
1499983580.16,26776,18.69,73928.3,-2.59,-37.81,-38.61,0,*5D
1499983581.45,26777,18.69,73932.0,-2.59,-37.99,-38.67,0,*53
1499983582.71,26778,18.69,73930.0,-2.59,-37.81,-38.43,0,*53
1499983583.94,26779,18.69,73928.0,-2.57,-37.99,-38.61,0,*55
1499983585.21,26780,18.69,73932.3,-2.59,-37.87,-38.49,0,*58
1499983586.47,26781,18.69,73930.0,-2.59,-37.87,-38.49,0,*59
1499983587.7,26782,18.69,73932.3,-2.57,-37.99,-38.55,0,*56
1499983588.94,26783,18.69,73928.5,-2.57,-37.99,-38.55,0,*57
1499983590.2,26784,18.69,73930.5,-2.59,-37.99,-38.61,0,*59
1499983591.48,26785,18.69,73930.5,-2.59,-38.11,-38.67,0,*51
1499983592.76,26786,18.69,73930.0,-2.59,-38.11,-38.79,0,*5D
1499983594.01,26787,18.69,73930.5,-2.59,-38.23,-38.85,0,*5E
1499983595.25,26788,18.69,73930.3,-2.59,-38.05,-38.61,0,*5F
1499983596.5,26789,18.69,73930.8,-2.59,-38.05,-38.49,0,*54
1499983597.76,26790,18.69,73930.0,-2.59,-37.99,-38.61,0,*5C
1499983599.02,26791,18.69,73930.5,-2.59,-37.51,-38.05,0,*5B
1499983600.26,26792,18.69,73930.0,-2.59,-37.87,-38.43,0,*51
1499983601.49,26793,18.69,73924.8,-2.61,-37.87,-38.49,0,*51
1499983602.73,26794,18.69,73928.8,-2.63,-37.75,-38.35,0,*52
1499983603.96,26795,18.69,73928.3,-2.61,-38.11,-38.61,0,*5D
1499983605.19,26796,18.69,73930.5,-2.61,-37.69,-38.43,0,*5E
1499983606.47,26797,18.69,73930.3,-2.59,-38.11,-38.79,0,*5D
1499983607.7,26798,18.69,73926.0,-2.61,-38.23,-38.97,0,*58
1499983608.93,26799,18.69,73930.5,-2.63,-38.17,-38.85,0,*5F
1499983610.17,26800,18.69,73930.3,-2.61,-37.99,-38.61,0,*51
1499983611.41,26801,18.63,73926.3,-2.61,-37.87,-38.49,0,*55
1499983612.66,26802,18.69,73930.5,-2.61,-38.11,-38.91,0,*53
1499983613.89,26803,18.69,73928.5,-2.63,-37.75,-38.35,0,*53
1499983615.17,26804,18.69,73930.8,-2.63,-38.11,-38.67,0,*5E
1499983616.43,26805,18.69,73928.8,-2.63,-37.93,-38.35,0,*5D
1499983617.7,26806,18.69,73930.3,-2.61,-37.81,-38.49,0,*54
1499983618.91,26807,18.69,73928.3,-2.61,-38.17,-38.85,0,*55
1499983620.16,26808,18.69,73932.0,-2.63,-38.17,-39.03,0,*57
1499983621.39,26809,18.69,73934.3,-2.61,-38.23,-38.85,0,*5C
1499983622.64,26810,18.69,73932.3,-2.63,-38.35,-39.03,0,*5E
1499983623.92,26811,18.69,73930.3,-2.63,-38.29,-39.03,0,*52
1499983625.21,26812,18.63,73926.3,-2.63,-38.29,-38.91,0,*5B
1499983626.44,26813,18.69,73934.3,-2.63,-38.17,-38.85,0,*52
1499983627.67,26814,18.69,73928.3,-2.65,-38.11,-38.73,0,*5C
1499983628.89,26815,18.69,73930.3,-2.65,-38.11,-38.73,0,*5D
1499983630.12,26816,18.69,73932.0,-2.65,-38.11,-38.85,0,*57
1499983631.33,26817,18.69,73934.5,-2.65,-38.17,-38.85,0,*50
1499983632.56,26818,18.69,73934.8,-2.65,-37.75,-38.49,0,*54
1499983633.81,26819,18.69,73930.3,-2.65,-37.51,-37.93,0,*5B
1499983635.04,26820,18.69,73934.0,-2.65,-38.05,-38.49,0,*57
1499983636.27,26821,18.69,73930.5,-2.65,-38.11,-38.85,0,*53
1499983637.47,26822,18.69,73928.5,-2.65,-38.17,-38.73,0,*5F
1499983638.73,26823,18.69,73930.0,-2.65,-38.29,-39.03,0,*55
1499983639.95,26824,18.69,73930.3,-2.65,-38.35,-39.03,0,*5F
1499983641.18,26825,18.69,73930.3,-2.67,-38.43,-38.97,0,*51
1499983642.44,26826,18.69,73930.0,-2.67,-37.99,-38.43,0,*53
1499983643.73,26827,18.69,73934.3,-2.67,-37.63,-38.23,0,*51
1499983644.98,26828,18.69,73934.0,-2.67,-37.57,-38.11,0,*58
1499983646.25,26829,18.69,73932.5,-2.67,-37.99,-38.55,0,*5B
1499983647.46,26830,18.69,73928.5,-2.65,-37.87,-38.35,0,*58
1499983648.69,26831,18.69,73934.8,-2.65,-38.05,-38.49,0,*57
1499983649.94,26832,18.69,73932.8,-2.65,-38.11,-38.67,0,*5D
1499983651.15,26833,18.69,73928.8,-2.65,-38.17,-38.85,0,*56
1499983652.4,26834,18.69,73932.3,-2.67,-38.35,-38.91,0,*56
1499983653.64,26835,18.63,73930.5,-2.67,-37.75,-38.17,0,*52
1499983654.89,26836,18.69,73932.0,-2.67,-38.17,-38.79,0,*52
1499983656.13,26837,18.69,73930.3,-2.67,-38.17,-38.61,0,*5A
1499983657.38,26838,18.69,73930.5,-2.67,-37.45,-37.93,0,*5F
1499983658.64,26839,18.69,73934.8,-2.67,-37.75,-38.23,0,*59
1499983659.9,26840,18.69,73932.8,-2.67,-37.99,-38.73,0,*50
1499983661.14,26841,18.69,73930.3,-2.67,-38.11,-38.73,0,*5E
1499983662.41,26842,18.69,73932.8,-2.67,-37.99,-38.43,0,*51
1499983663.62,26843,18.69,73932.3,-2.65,-37.87,-38.17,0,*5C
1499983664.87,26844,18.69,73932.0,-2.67,-38.11,-38.55,0,*5F
1499983666.12,26845,18.69,73932.8,-2.67,-38.11,-38.73,0,*5A
1499983667.35,26846,18.69,73930.5,-2.67,-38.17,-38.73,0,*5F
1499983668.61,26847,18.69,73930.8,-2.67,-37.99,-38.55,0,*53
1499983669.91,26848,18.69,73930.8,-2.67,-37.81,-38.23,0,*54
1499983671.16,26849,18.69,73930.8,-2.67,-37.63,-38.17,0,*5E
1499983672.42,26850,18.69,73928.5,-2.67,-37.75,-38.23,0,*56
1499983673.71,26851,18.69,73930.3,-2.67,-37.63,-37.99,0,*5E
1499983675.0,26852,18.69,73934.3,-2.67,-37.81,-38.23,0,*5F
1499983676.24,26853,18.69,73930.3,-2.65,-37.93,-38.35,0,*58
1499983677.45,26854,18.69,73930.5,-2.65,-37.87,-38.55,0,*5C
1499983678.72,26855,18.69,73932.3,-2.67,-37.81,-38.17,0,*5F
1499983679.98,26856,18.69,73932.5,-2.67,-37.93,-38.43,0,*5E
1499983681.21,26857,18.69,73928.3,-2.67,-37.75,-38.17,0,*56
1499983682.46,26858,18.69,73930.8,-2.67,-37.99,-38.73,0,*59
1499983683.74,26859,18.69,73930.3,-2.67,-37.63,-38.11,0,*59
1499983685.0,26860,18.69,73930.3,-2.67,-37.57,-37.99,0,*5B
1499983686.26,26861,18.69,73930.8,-2.67,-37.75,-38.23,0,*54
1499983687.52,26862,18.69,73926.5,-2.67,-37.75,-38.11,0,*56
1499983688.77,26863,18.69,73928.3,-2.67,-37.57,-38.11,0,*57
1499983690.0,26864,18.69,73926.8,-2.67,-37.75,-38.17,0,*56
1499983691.21,26865,18.69,73926.0,-2.65,-37.75,-38.17,0,*55
1499983692.47,26866,18.69,73930.5,-2.67,-37.99,-38.55,0,*50
1499983693.72,26867,18.69,73934.5,-2.67,-38.11,-38.73,0,*5A
1499983695.01,26868,18.69,73930.5,-2.67,-37.81,-38.23,0,*56